Weather in Novomykolaivka

Ukraine / Zaporizhia Region     47°06′22″N   35°42′47″E
temp.,
°C
wind,
m/s
gust,
m/s
humid.,
%
clouds,
%
prec.,
mm/h
press.,
hPa
HPBL,
m
16 october, sat
sat1600:00+9ene495351 0.0 1021155
03:00+8ne495838 0.0 1020152
06:00+8ene496562 0.0 1018154
09:00+12e5959100 0.0 1018308
12:00+17e4641100 0.0 1017637
15:00+19ene4536100 0.0 1015916
18:00+15e3346100 0.0 101527
21:00+13ne2251100 0.0 101618
17 october, sun
sun1700:00+12nne3453100 0.0 101558
03:00+12nne4754100 0.0 1015122
06:00+12nne4955100 0.0 1015203
09:00+13nne3752100 0.0 1016297
12:00+17ne454096 0.0 1016649
15:00+18nne554090 0.0 10151220
18:00+14n5855100 0.0 1016234
21:00+13n585573 0.0 1017294
18 october, mon
mon1800:00+12n475297 0.0 1017237
03:00+12nnw4754100 0.0 1017280
06:00+12nnw4763100 0.0 1017306
09:00+11nnw4762100 0.0 1018330
12:00+14nw4551100 0.0 1019746
15:00+16nw553697 0.0 10171426
18:00+12nw474795 0.0 1018132
21:00+9nw36565 0.0 1019108
19 october, tue
tue1900:00+8nw3363100 0.0 102042
03:00+8wnw3459100 0.0 1019100
06:00+8w2362100 0.0 101945
09:00+9sw2356100 0.0 1019130
12:00+13wsw3547100 0.0 1018964
15:00+9nw4575100 1.0 1018859
18:00+8nnw4683100 1.4 1019518
21:00+9nnw5106886 1.6 1021734
20 october, wed
wed2000:00+6nnw612520 0.0 1024363
03:00+4nw410680 0.0 1025242
06:00+3nw49780 0.0 1027230
09:00+5nnw58645 0.0 1029652
12:00+8nnw454336 0.0 10291193
15:00+10nnw34360 0.0 10291276
18:00+7nw23454 0.0 102923
21:00+5se11495 0.0 102910